Regional Weather Roundup
Issued by NWS

Home | Current Version | Previous Version | Text Only | Print | Product List | Glossary On
Versions: 1 2 3 4 5 6 7 8 9 10 11 12 13 14 15 16 17 18 19 20 21 22 23 24 25 26 27 28 29 30 31 32 33 34 35 36 37 38 39 40 41 42 43 44 45 46 47 48 49 50
000
ASUS46 KLOX 222211
RWRCA

SOUTHERN CALIFORNIA WEATHER ROUNDUP
NATIONAL WEATHER SERVICE OXNARD CALIFORNIA
300 PM PDT FRI MAY 22 2015

NOTE: "FAIR" INDICATES FEW OR NO CLOUDS BELOW 12,000 FEET WITH NO
SIGNIFICANT WEATHER AND/OR OBSTRUCTIONS TO VISIBILITY.

  -  STATIONS PRECEEDED BY AN ASTERISK (*) ARE NOT NWS OR FAA
     STATIONS AND ARE NOT SUBJECT TO NWS AND FAA QUALITY CONTROL.

CAZ041-042-087-222300-
LA AND ORANGE COUNTY COASTAL AREAS


CITY           SKY/WX    TMP DP  RH WIND       PRES   REMARKS
L.A. DOWNTOWN  CLOUDY    67  50  54 MISG      30.01S
L.A. AIRPORT   PTSUNNY   64  53  67 SW14      30.03S
LONG BEACH     CLOUDY    64  52  64 SW6       30.02F

CITY           SKY/WX    TMP DP  RH WIND       PRES   REMARKS
AVALON           N/A     63 N/A N/A MISG        N/A
FULLERTON      CLOUDY    66  50  56 SW7       30.01F
HAWTHORNE      MOSUNNY   67  50  54 SW13      30.02F
*LOS ALAMITOS  CLOUDY    64  53  69 SW14      30.02F
*REDONDO BEACH   N/A     69  55  59 SW3       30.02F
SANTA ANA      PTSUNNY   65  49  56 W8        30.03S
STA MONICA APT MOSUNNY   65  52  62 W8G18     30.02F
*STA MON PIER    N/A     60  55  83 W9        30.02F
TORRANCE       PTSUNNY   68  55  64 NW17      30.03S
*UCLA            N/A     61  50  67 SW13      29.99F

$$

CAZ547-548-048-222300-
LA COUNTY VALLEYS AND INLAND EMPIRE


CITY           SKY/WX    TMP DP  RH WIND       PRES   REMARKS
BURBANK        CLOUDY    65  46  50 SE8       30.00S
VAN NUYS       CLOUDY    65  44  46 S7        30.00F

CITY           SKY/WX    TMP DP  RH WIND       PRES   REMARKS
CORONA AIRPORT CLOUDY    62  49  62 W8        30.02S
*CHATSWORTH      N/A     64  48  56 SW2       30.00F
CHINO          CLOUDY    64  48  56 SW10      30.03S
*NORTHRIDGE      N/A     63  41  45 E3          N/A
ONTARIO        CLOUDY    61  47  59 W6        30.02S
*PASADENA        N/A     63  52  67 NE5         N/A
RIVERSIDE      CLOUDY    63  48  58 W10       30.02S
SAN BERNARDINO CLOUDY    59  41  51 CALM      30.02S
*WHITEMAN AP   CLOUDY    63  45  51 SE5       30.04S
*WOODLAND HILL   N/A     63  46  55 S6          N/A

$$

CAZ054-055-222300-
LA AND SAN BERNARDINO COUNTY MOUNTAINS


CITY           SKY/WX    TMP DP  RH WIND       PRES   REMARKS
*BIG BEAR AIRP MOCLDY    41  34  75 W13       30.03S WCI  34
SANDBERG       PTSUNNY   56  44  64 NW14      30.03F

$$

CAZ028-029-059-060-099-222300-
ANTELOPE VALLEY AND SURROUNDING AREAS


CITY           SKY/WX    TMP DP  RH WIND       PRES   REMARKS
LANCASTER      MOSUNNY   66  42  41 W31G39    29.96S
PALMDALE       SUNNY     64  43  46 SW26      29.96S

CITY           SKY/WX    TMP DP  RH WIND       PRES   REMARKS
29 PALMS       PTSUNNY   72  38  29 W13G26    29.94F
BARSTOW/DAGGET SUNNY     74  38  27 SW22G29   29.87F
BISHOP         MOSUNNY   67  39  35 VRB6      29.89F
CHINA LAKE     PTSUNNY   70  37  29 W8        29.87F
EDWARDS AFB    PTSUNNY   70  40  34 W16G29    29.90R
MOJAVE         FAIR      63  43  48 W31G44    29.93S
NEEDLES        PTSUNNY   77  32  19 W10       29.82S
VICTORVILLE    CLOUDY    63  39  42 S16       29.95S

$$

CAZ039-040-222300-
VENTURA AND SANTA BARBARA COUNTY COAST


CITY           SKY/WX    TMP DP  RH WIND       PRES   REMARKS
CAMARILLO      PTSUNNY   69  49  48 W16G22    30.00F
OXNARD AIRPORT SUNNY     69  53  56 W18       30.01F
*POINT MUGU    MOSUNNY   67  54  63 SW14      30.03S
SBA APT/GOLETA MOSUNNY   66  52  60 W20G29    29.98F
*SANTA BARBARA   N/A     73  51  46 NE2       30.06F
*VENTURA         N/A     70  50  49 SW12      29.62S

$$

CAZ044-045-222300-
VENTURA COUNTY VALLEYS


CITY           SKY/WX    TMP DP  RH WIND       PRES   REMARKS
*SIMI VALLEY     N/A     64  51  61 CALM      29.96F
*OJAI            N/A     67  52  58 SW3       29.94F
*FILLMORE        N/A     65  53  64 W2        29.90S

$$

CAZ053-222300-
VENTURA COUNTY MOUNTAINS


CITY           SKY/WX    TMP DP  RH WIND       PRES   REMARKS

$$

CAZ034-035-036-222300-
CENTRAL COAST AND SANTA YNEZ VALLEY


CITY           SKY/WX    TMP DP  RH WIND       PRES   REMARKS
SAN LUIS OBISP MOSUNNY   69  49  48 NW16      30.02S
SANTA MARIA    MOSUNNY   70  51  51 NW21      30.02F

CITY           SKY/WX    TMP DP  RH WIND       PRES   REMARKS
*CAL POLY SLO    N/A     68  55  64 W7          N/A
*PISMO BEACH     N/A     62  56  82 W12       30.03F
*SANTA YNEZ    FAIR      72  43  35 W17G26    29.98F

$$

CAZ037-038-051-222300-
SAN LUIS OBISPO COUNTY INTERIOR AND CUYAMA VALLEY


CITY           SKY/WX    TMP DP  RH WIND       PRES   REMARKS
*CUYAMA          N/A     62  47  57 N3        29.97F
PASO ROBLES    SUNNY     73  48  41 S10       29.97F

$$

CAZ032-033-061-222300-
SOUTHERN DESERTS


CITY           SKY/WX    TMP DP  RH WIND       PRES   REMARKS
BLYTHE         MOSUNNY   81  40  23 W13G24    29.83F
IMPERIAL       MOSUNNY   78  42  27 W21G30    29.89S
PALM SPRINGS   MOSUNNY   79  40  24 NW17G26   29.87F
THERMAL        SUNNY     81  39  22 W10G21    29.83F

$$

ELSEWHERE ACROSS THE WESTERN UNITED STATES AND MEXICO


CITY           SKY/WX    TMP DP  RH WIND       PRES   REMARKS
DENVER, CO     PTSUNNY   56  46  69 NE8       29.98F
GRAND CANYON,  NOT AVBL
HONOLULU, HI   MOSUNNY   82  68  61 SW14      29.96F
KAHULUI, MAUI  MOSUNNY   82  70  65 N8        29.97F
LAKE TAHOE, CA PTSUNNY   54  40  59 S12       30.00F
LAS VEGAS, NV  PTSUNNY   73  37  27 W3        29.78F
MAMMOTH LAKES, PTSUNNY   50  36  57 W8G16     30.00F
MEXICO CITY, M CLOUDY    72  48  43 N3        30.31F
PHOENIX, AZ    MOSUNNY   79  38  22 W17G23    29.85S
PORTLAND, OR   CLOUDY    59  52  77 SW3       30.04F
RENO, NV       PTSUNNY   67  40  37 NW9       29.91F
SALT LAKE CITY LGT RAIN  58  46  64 E14       29.88S
SAN DIEGO, CA  PTSUNNY   67  50  54 SW13      30.06S
SAN FRANCISCO, CLOUDY    61  52  72 W17       30.03F
SAN JOSE, CA   PTSUNNY   67  51  56 NW14      30.01S
SEATTLE, WA    CLOUDY    60  50  69 SW7       30.02R
TIJUANA, MEX   PTSUNNY   64  48  55 SW9       30.07S

$$

STATION/POSITION TIME  TEMP    WIND        PRES    VSBY  WAVE
                       AIR SEA DIR/SP/G                  HT/PER
                 (UTC) (F)     (DEG/KT/KT) (MB)    (MI)  (FT/S)
POINT ARGUELLO B NOT AVBL
WEST SANTA BARBA 2150   58 58  290/ 14/ 16 1016.5F         4/11
POINT CONCEPTION NOT AVBL
EAST SANTA BARBA 2100   58 58  260/ 19/ 23 1016.4S
SANTA MONICA BAY 2150   60 63  270/ 14/ 16 1016.8F         3/ 5


USA.gov is the U.S. government's official web portal to all federal, state and local government web resources and services.